Time,TemperatureF,DewpointF,PressureIn,WindDirection,WindDirectionDegrees,WindSpeedMPH,WindSpeedGustMPH,Humidity,HourlyPrecipIn,Conditions,Clouds,dailyrainin,SolarRadiationWatts/m^2,SoftwareType,DateUTC
2013-08-14 00:02:00,55.3,52.7,30.13,North,353,1.2,0.0,91,0.00,CLR,,0.00,0.0,WeatherDisplay:10.37,2013-08-13 23:02:00,
2013-08-14 00:07:00,55.4,53.1,30.13,North,0,2.3,2.3,92,0.00,CLR,,0.00,0.0,WeatherDisplay:10.37,2013-08-13 23:07:00,
2013-08-14 00:12:00,55.4,53.1,30.13,North,356,0.0,0.0,92,0.00,CLR,,0.00,0.0,WeatherDisplay:10.37,2013-08-13 23:12:00,
2013-08-14 00:17:00,55.4,53.1,30.13,North,356,1.2,0.0,92,0.00,CLR,,0.00,0.0,WeatherDisplay:10.37,2013-08-13 23:17:00,
2013-08-14 00:23:00,55.6,53.3,30.13,North,357,2.3,2.3,92,0.00,CLR,,0.00,0.0,WeatherDisplay:10.37,2013-08-13 23:23:00,
2013-08-14 00:28:00,55.6,53.6,30.13,SW,232,0.0,0.0,93,0.00,CLR,,0.00,0.0,WeatherDisplay:10.37,2013-08-13 23:28:00,
2013-08-14 00:33:00,55.6,53.6,30.13,NNW,346,2.3,2.3,93,0.00,CLR,,0.00,0.0,WeatherDisplay:10.37,2013-08-13 23:33:00,
2013-08-14 00:38:00,55.6,53.6,30.13,NNW,347,3.5,3.5,93,0.00,CLR,,0.00,0.0,WeatherDisplay:10.37,2013-08-13 23:38:00,
2013-08-14 00:44:00,55.6,53.6,30.12,North,0,3.0,3.0,93,0.00,CLR,,0.00,0.0,WeatherDisplay:10.37,2013-08-13 23:44:00,
2013-08-14 00:49:00,55.6,53.9,30.12,North,0,3.5,3.5,94,0.00,CLR,,0.00,0.0,WeatherDisplay:10.37,2013-08-13 23:49:00,
2013-08-14 00:54:00,55.4,53.7,30.12,NNW,346,2.3,2.3,94,0.00,CLR,,0.00,0.0,WeatherDisplay:10.37,2013-08-13 23:54:00,
2013-08-14 00:59:00,55.4,53.7,30.12,North,0,4.6,4.6,94,0.00,CLR,,0.00,0.0,WeatherDisplay:10.37,2013-08-13 23:59:00,
2013-08-14 01:04:00,55.4,53.7,30.12,North,353,1.2,1.2,94,0.00,CLR,,0.00,0.0,WeatherDisplay:10.37,2013-08-14 00:04:00,
2013-08-14 01:09:00,55.4,53.7,30.12,NNW,344,2.3,2.3,94,0.00,CLR,,0.00,0.0,WeatherDisplay:10.37,2013-08-14 00:09:00,
2013-08-14 01:14:00,55.4,54.0,30.12,North,353,5.8,5.8,95,0.00,CLR,,0.00,0.0,WeatherDisplay:10.37,2013-08-14 00:14:00,
2013-08-14 01:20:00,55.4,54.0,30.12,North,0,4.6,4.6,95,0.00,CLR,,0.00,0.0,WeatherDisplay:10.37,2013-08-14 00:20:00,
2013-08-14 01:24:00,55.4,54.0,30.12,NNW,343,3.5,3.5,95,0.00,CLR,,0.00,0.0,WeatherDisplay:10.37,2013-08-14 00:24:00,
2013-08-14 01:29:00,55.4,54.0,30.12,North,357,2.0,2.0,95,0.00,CLR,,0.00,0.0,WeatherDisplay:10.37,2013-08-14 00:29:00,
2013-08-14 01:35:00,55.4,54.0,30.12,North,0,4.6,4.6,95,0.00,CLR,,0.00,0.0,WeatherDisplay:10.37,2013-08-14 00:35:00,
2013-08-14 01:40:00,55.3,53.9,30.11,North,356,1.2,1.2,95,0.00,CLR,,0.00,0.0,WeatherDisplay:10.37,2013-08-14 00:40:00,
2013-08-14 01:45:00,55.3,53.9,30.11,NNW,346,5.8,5.8,95,0.00,CLR,,0.00,0.0,WeatherDisplay:10.37,2013-08-14 00:45:00,
2013-08-14 01:50:00,55.3,54.2,30.11,NNW,343,2.3,2.3,96,0.00,CLR,,0.00,0.0,WeatherDisplay:10.37,2013-08-14 00:50:00,
2013-08-14 01:55:00,55.1,54.0,30.11,North,356,5.8,5.8,96,0.00,CLR,,0.00,0.0,WeatherDisplay:10.37,2013-08-14 00:55:00,
2013-08-14 02:00:00,55.1,54.0,30.11,North,353,5.8,5.8,96,0.00,CLR,,0.00,0.0,WeatherDisplay:10.37,2013-08-14 01:00:00,
2013-08-14 02:05:00,55.1,54.0,30.11,WSW,237,5.8,5.8,96,0.00,CLR,,0.00,0.0,WeatherDisplay:10.37,2013-08-14 01:05:00,
2013-08-14 02:10:00,55.0,53.9,30.11,North,357,8.1,8.1,96,0.00,CLR,,0.00,0.0,WeatherDisplay:10.37,2013-08-14 01:10:00,
2013-08-14 02:15:00,55.0,53.9,30.10,North,359,3.5,3.5,96,0.00,CLR,,0.00,0.0,WeatherDisplay:10.37,2013-08-14 01:15:00,
2013-08-14 02:20:00,55.0,53.9,30.10,NNW,346,4.6,4.6,96,0.00,CLR,,0.00,0.0,WeatherDisplay:10.37,2013-08-14 01:20:00,
2013-08-14 02:26:00,54.8,53.7,30.10,North,359,2.3,2.3,96,0.00,CLR,,0.00,0.0,WeatherDisplay:10.37,2013-08-14 01:26:00,
2013-08-14 02:31:00,54.8,53.7,30.10,North,0,3.5,3.5,96,0.00,CLR,,0.00,0.0,WeatherDisplay:10.37,2013-08-14 01:31:00,
2013-08-14 02:36:00,54.8,53.7,30.10,NNW,346,3.5,3.5,96,0.00,CLR,,0.00,0.0,WeatherDisplay:10.37,2013-08-14 01:36:00,
2013-08-14 02:41:00,54.8,53.7,30.10,NNW,342,4.6,4.6,96,0.00,CLR,,0.00,0.0,WeatherDisplay:10.37,2013-08-14 01:41:00,
2013-08-14 02:46:00,54.7,53.6,30.10,North,356,2.3,2.3,96,0.00,CLR,,0.00,0.0,WeatherDisplay:10.37,2013-08-14 01:46:00,
2013-08-14 02:51:00,54.7,53.6,30.10,NNW,346,2.3,2.3,96,0.00,CLR,,0.00,0.0,WeatherDisplay:10.37,2013-08-14 01:51:00,
2013-08-14 02:56:00,54.5,53.4,30.10,NNW,346,1.2,1.2,96,0.00,CLR,,0.00,0.0,WeatherDisplay:10.37,2013-08-14 01:56:00,
2013-08-14 03:01:00,54.4,53.3,30.11,NW,315,3.5,3.5,96,0.00,CLR,,0.00,0.0,WeatherDisplay:10.37,2013-08-14 02:01:00,
2013-08-14 03:06:00,54.4,53.3,30.11,NW,323,1.2,0.0,96,0.00,CLR,,0.00,0.0,WeatherDisplay:10.37,2013-08-14 02:06:00,
2013-08-14 03:11:00,54.4,53.3,30.11,NW,326,1.0,1.0,96,0.00,CLR,,0.00,0.0,WeatherDisplay:10.37,2013-08-14 02:11:00,
2013-08-14 03:16:00,54.2,53.1,30.11,NNW,328,3.5,3.5,96,0.00,CLR,,0.00,0.0,WeatherDisplay:10.37,2013-08-14 02:16:00,
2013-08-14 03:22:00,54.1,53.0,30.11,NW,323,1.2,1.2,96,0.00,CLR,,0.00,0.0,WeatherDisplay:10.37,2013-08-14 02:22:00,
2013-08-14 03:27:00,53.9,52.8,30.11,NNW,333,0.0,0.0,96,0.00,CLR,,0.00,0.0,WeatherDisplay:10.37,2013-08-14 02:27:00,
2013-08-14 03:32:00,53.9,52.8,30.11,WSW,239,3.0,3.0,96,0.00,CLR,,0.00,0.0,WeatherDisplay:10.37,2013-08-14 02:32:00,
2013-08-14 03:37:00,53.9,52.8,30.10,WSW,239,2.3,0.0,96,0.00,CLR,,0.00,0.0,WeatherDisplay:10.37,2013-08-14 02:37:00,
2013-08-14 03:42:00,53.9,52.8,30.10,WSW,239,0.0,0.0,96,0.00,CLR,,0.00,0.0,WeatherDisplay:10.37,2013-08-14 02:42:00,
2013-08-14 03:47:00,53.9,52.8,30.10,WSW,239,2.3,2.3,96,0.00,CLR,,0.00,0.0,WeatherDisplay:10.37,2013-08-14 02:47:00,
2013-08-14 03:52:00,53.9,52.8,30.10,WSW,237,0.0,0.0,96,0.00,CLR,,0.00,0.0,WeatherDisplay:10.37,2013-08-14 02:52:00,
2013-08-14 03:58:00,54.1,53.0,30.10,WSW,239,0.0,0.0,96,0.00,CLR,,0.00,0.0,WeatherDisplay:10.37,2013-08-14 02:58:00,
2013-08-14 04:03:00,54.1,53.0,30.10,WSW,237,0.0,0.0,96,0.00,CLR,,0.00,0.0,WeatherDisplay:10.37,2013-08-14 03:03:00,
2013-08-14 04:08:00,54.1,53.0,30.10,WSW,237,0.0,0.0,96,0.00,CLR,,0.00,0.0,WeatherDisplay:10.37,2013-08-14 03:08:00,
2013-08-14 04:13:00,54.2,53.1,30.10,WSW,237,0.0,0.0,96,0.00,CLR,,0.00,0.0,WeatherDisplay:10.37,2013-08-14 03:13:00,
2013-08-14 04:18:00,54.2,53.1,30.10,WSW,237,0.0,0.0,96,0.00,CLR,,0.00,0.0,WeatherDisplay:10.37,2013-08-14 03:18:00,
2013-08-14 04:23:00,54.2,53.1,30.10,WSW,237,0.0,0.0,96,0.00,CLR,,0.00,0.0,WeatherDisplay:10.37,2013-08-14 03:23:00,
2013-08-14 04:28:00,54.2,53.1,30.10,WSW,237,0.0,0.0,96,0.00,CLR,,0.00,0.0,WeatherDisplay:10.37,2013-08-14 03:28:00,
2013-08-14 04:33:00,54.2,53.1,30.10,WSW,237,0.0,0.0,96,0.00,CLR,,0.00,0.0,WeatherDisplay:10.37,2013-08-14 03:33:00,
2013-08-14 04:38:00,54.2,53.1,30.09,WSW,237,0.0,0.0,96,0.00,CLR,,0.00,0.0,WeatherDisplay:10.37,2013-08-14 03:38:00,
2013-08-14 04:43:00,54.2,53.1,30.09,WSW,237,2.3,2.3,96,0.00,CLR,,0.00,0.0,WeatherDisplay:10.37,2013-08-14 03:43:00,
2013-08-14 04:48:00,54.4,53.3,30.09,NNW,343,3.5,3.5,96,0.00,CLR,,0.00,0.0,WeatherDisplay:10.37,2013-08-14 03:48:00,
2013-08-14 04:54:00,54.4,53.3,30.09,North,0,1.2,0.0,96,0.00,CLR,,0.00,0.0,WeatherDisplay:10.37,2013-08-14 03:54:00,
2013-08-14 04:59:00,54.5,53.4,30.09,North,350,0.0,0.0,96,0.00,CLR,,0.00,0.0,WeatherDisplay:10.37,2013-08-14 03:59:00,
2013-08-14 05:01:00,54.5,53.4,30.09,North,349,0.0,0.0,96,0.00,CLR,,0.00,0.0,WeatherDisplay:10.37,2013-08-14 04:01:00,
2013-08-14 05:02:00,54.5,53.4,30.09,NNW,343,0.0,0.0,96,0.00,CLR,,0.00,0.0,WeatherDisplay:10.37,2013-08-14 04:02:00,
2013-08-14 05:03:00,54.5,53.4,30.09,North,354,0.0,0.0,96,0.00,CLR,,0.00,0.0,WeatherDisplay:10.37,2013-08-14 04:03:00,
2013-08-14 05:07:00,54.5,53.4,30.09,NNW,343,0.0,0.0,96,0.00,CLR,,0.00,0.0,WeatherDisplay:10.37,2013-08-14 04:07:00,
2013-08-14 05:12:00,54.7,53.6,30.09,North,354,0.0,0.0,96,0.00,CLR,,0.00,0.0,WeatherDisplay:10.37,2013-08-14 04:12:00,
2013-08-14 05:17:00,54.7,53.6,30.09,NNW,344,0.0,0.0,96,0.00,OVC,,0.00,0.0,WeatherDisplay:10.37,2013-08-14 04:17:00,
2013-08-14 05:22:00,54.7,53.6,30.09,North,350,0.0,0.0,96,0.00,OVC,,0.00,0.0,WeatherDisplay:10.37,2013-08-14 04:22:00,
2013-08-14 05:27:00,54.8,53.7,30.09,North,0,0.0,0.0,96,0.00,OVC,,0.00,0.0,WeatherDisplay:10.37,2013-08-14 04:27:00,
2013-08-14 05:32:00,54.8,53.7,30.09,NNW,343,1.2,1.2,96,0.00,OVC,,0.00,0.0,WeatherDisplay:10.37,2013-08-14 04:32:00,
2013-08-14 05:37:00,54.8,53.7,30.09,NNW,344,3.5,3.5,96,0.00,OVC,,0.00,0.0,WeatherDisplay:10.37,2013-08-14 04:37:00,
2013-08-14 05:42:00,55.0,53.9,30.09,North,0,2.3,2.3,96,0.00,OVC,,0.00,0.0,WeatherDisplay:10.37,2013-08-14 04:42:00,
2013-08-14 05:48:00,55.1,54.0,30.09,NW,322,2.3,2.3,96,0.00,OVC,,0.00,5.0,WeatherDisplay:10.37,2013-08-14 04:48:00,
2013-08-14 05:53:00,55.1,54.0,30.09,NW,319,2.3,2.3,96,0.00,OVC,,0.00,7.0,WeatherDisplay:10.37,2013-08-14 04:53:00,
2013-08-14 05:58:00,55.3,53.9,30.08,NW,313,0.0,0.0,95,0.00,OVC,,0.00,9.0,WeatherDisplay:10.37,2013-08-14 04:58:00,
2013-08-14 06:03:00,55.3,53.9,30.08,NW,311,0.0,0.0,95,0.00,OVC,,0.00,11.0,WeatherDisplay:10.37,2013-08-14 05:03:00,
2013-08-14 06:08:00,55.4,54.0,30.08,NW,322,0.0,0.0,95,0.00,OVC,,0.00,12.0,WeatherDisplay:10.37,2013-08-14 05:08:00,
2013-08-14 06:13:00,55.4,54.0,30.08,NW,323,2.3,2.3,95,0.00,OVC,,0.00,14.0,WeatherDisplay:10.37,2013-08-14 05:13:00,
2013-08-14 06:18:00,55.6,54.2,30.08,NW,320,1.0,1.0,95,0.00,OVC,,0.00,12.0,WeatherDisplay:10.37,2013-08-14 05:18:00,
2013-08-14 06:23:00,55.7,54.3,30.08,NW,319,2.3,2.3,95,0.00,OVC,,0.00,14.0,WeatherDisplay:10.37,2013-08-14 05:23:00,
2013-08-14 06:29:00,55.7,54.3,30.08,NW,313,2.3,2.3,95,0.00,CLR,,0.00,18.0,WeatherDisplay:10.37,2013-08-14 05:29:00,
2013-08-14 06:34:00,55.9,54.5,30.08,NW,312,2.3,2.3,95,0.00,CLR,,0.00,18.0,WeatherDisplay:10.37,2013-08-14 05:34:00,
2013-08-14 06:39:00,55.9,54.5,30.08,NW,315,0.0,0.0,95,0.00,FEW,,0.00,19.0,WeatherDisplay:10.37,2013-08-14 05:39:00,
2013-08-14 06:44:00,56.0,54.6,30.08,NW,319,1.2,0.0,95,0.00,SCT,,0.00,19.0,WeatherDisplay:10.37,2013-08-14 05:44:00,
2013-08-14 06:49:00,56.0,54.6,30.08,NW,323,0.0,0.0,95,0.00,SCT,,0.00,23.0,WeatherDisplay:10.37,2013-08-14 05:49:00,
2013-08-14 06:54:00,56.2,54.8,30.08,NW,319,2.3,2.3,95,0.00,BKN,,0.00,21.0,WeatherDisplay:10.37,2013-08-14 05:54:00,
2013-08-14 06:59:00,56.3,54.9,30.08,NW,313,1.0,0.0,95,0.00,BKN,,0.00,19.0,WeatherDisplay:10.37,2013-08-14 05:59:00,
2013-08-14 07:04:00,56.3,54.9,30.08,NW,311,0.0,0.0,95,0.00,BKN,,0.00,30.0,WeatherDisplay:10.37,2013-08-14 06:04:00,
2013-08-14 07:10:00,56.5,55.1,30.08,NW,318,0.0,0.0,95,0.00,SCT,,0.00,48.0,WeatherDisplay:10.37,2013-08-14 06:10:00,
2013-08-14 07:15:00,56.6,55.2,30.08,NW,315,0.0,2.0,95,0.00,SCT,,0.00,53.0,WeatherDisplay:10.37,2013-08-14 06:15:00,
2013-08-14 07:20:00,56.6,55.2,30.08,NW,322,0.0,0.0,95,0.00,SCT,,0.00,51.0,WeatherDisplay:10.37,2013-08-14 06:20:00,
2013-08-14 07:25:00,56.6,55.2,30.08,NW,316,2.3,2.3,95,0.00,OVC,,0.00,26.0,WeatherDisplay:10.37,2013-08-14 06:25:00,
2013-08-14 07:30:00,56.7,55.3,30.08,NW,318,0.0,0.1,95,0.00,OVC,,0.00,21.0,WeatherDisplay:10.37,2013-08-14 06:30:00,
2013-08-14 07:35:00,56.9,55.5,30.08,North,0,2.3,2.3,95,0.00,OVC,,0.00,23.0,WeatherDisplay:10.37,2013-08-14 06:35:00,
2013-08-14 07:40:00,57.0,55.6,30.08,NNW,343,3.5,3.5,95,0.00,OVC,,0.00,46.0,WeatherDisplay:10.37,2013-08-14 06:40:00,
2013-08-14 07:45:00,57.2,55.8,30.08,North,354,2.3,2.3,95,0.00,SCT,,0.00,90.0,WeatherDisplay:10.37,2013-08-14 06:45:00,
2013-08-14 07:50:00,57.3,55.9,30.07,North,0,2.3,2.3,95,0.00,SCT,,0.00,93.0,WeatherDisplay:10.37,2013-08-14 06:50:00,
2013-08-14 07:56:00,57.6,56.2,30.07,NNW,347,3.5,3.5,95,0.00,SCT,,0.00,91.0,WeatherDisplay:10.37,2013-08-14 06:56:00,
2013-08-14 08:01:00,58.0,56.6,30.07,NNW,347,4.6,4.6,95,0.00,BKN,,0.00,88.0,WeatherDisplay:10.37,2013-08-14 07:01:00,
2013-08-14 08:06:00,58.1,56.7,30.07,North,350,4.6,4.6,95,0.00,BKN,,0.00,88.0,WeatherDisplay:10.37,2013-08-14 07:06:00,
2013-08-14 08:11:00,58.3,56.9,30.07,NNW,346,5.8,5.8,95,0.00,SCT,,0.00,111.0,WeatherDisplay:10.37,2013-08-14 07:11:00,
2013-08-14 08:16:00,58.3,56.6,30.07,North,353,5.8,5.8,94,0.00,SCT,,0.00,143.0,WeatherDisplay:10.37,2013-08-14 07:16:00,
2013-08-14 08:21:00,58.7,57.0,30.07,North,359,6.0,6.0,94,0.00,FEW,,0.00,169.0,WeatherDisplay:10.37,2013-08-14 07:21:00,
2013-08-14 08:26:00,59.2,57.2,30.07,North,352,5.8,5.8,93,0.00,FEW,,0.00,185.0,WeatherDisplay:10.37,2013-08-14 07:26:00,
2013-08-14 08:31:00,59.6,57.3,30.07,North,0,4.6,4.6,92,0.00,FEW,,0.00,172.0,WeatherDisplay:10.37,2013-08-14 07:31:00,
2013-08-14 08:36:00,59.6,57.0,30.07,North,0,7.0,7.0,91,0.00,SCT,,0.00,141.0,WeatherDisplay:10.37,2013-08-14 07:36:00,
2013-08-14 08:41:00,59.9,57.3,30.07,NNW,346,5.8,5.8,91,0.00,FEW,,0.00,252.0,WeatherDisplay:10.37,2013-08-14 07:41:00,
2013-08-14 08:47:00,59.9,57.0,30.07,North,354,11.5,11.5,90,0.00,CLR,,0.00,294.0,WeatherDisplay:10.37,2013-08-14 07:47:00,
2013-08-14 08:52:00,60.4,57.1,30.07,North,0,11.5,11.5,89,0.00,FEW,,0.00,241.0,WeatherDisplay:10.37,2013-08-14 07:52:00,
2013-08-14 08:57:00,60.9,57.6,30.07,NNW,346,11.5,11.5,89,0.00,CLR,,0.00,333.0,WeatherDisplay:10.37,2013-08-14 07:57:00,
2013-08-14 09:02:00,61.2,57.6,30.07,North,357,6.9,6.9,88,0.00,SCT,,0.00,206.0,WeatherDisplay:10.37,2013-08-14 08:02:00,
2013-08-14 09:07:00,61.2,57.6,30.07,North,353,8.1,8.1,88,0.00,BKN,,0.00,148.0,WeatherDisplay:10.37,2013-08-14 08:07:00,
2013-08-14 09:12:00,61.0,57.4,30.07,North,0,5.8,5.8,88,0.00,CLR,,0.00,324.0,WeatherDisplay:10.37,2013-08-14 08:12:00,
2013-08-14 09:17:00,61.2,57.6,30.07,SW,233,8.1,8.1,88,0.00,SCT,,0.00,238.0,WeatherDisplay:10.37,2013-08-14 08:17:00,
2013-08-14 09:22:00,61.5,57.6,30.07,North,0,5.8,5.8,87,0.00,SCT,,0.00,234.0,WeatherDisplay:10.37,2013-08-14 08:22:00,
2013-08-14 09:27:00,61.8,57.9,30.07,WNW,299,7.0,7.0,87,0.00,CLR,,0.00,417.0,WeatherDisplay:10.37,2013-08-14 08:27:00,
2013-08-14 09:32:00,62.1,57.9,30.07,North,354,3.5,3.5,86,0.00,SCT,,0.00,269.0,WeatherDisplay:10.37,2013-08-14 08:32:00,
2013-08-14 09:37:00,62.0,57.8,30.07,NNW,347,10.4,10.4,86,0.00,SCT,,0.00,289.0,WeatherDisplay:10.37,2013-08-14 08:37:00,
2013-08-14 09:42:00,62.1,57.9,30.07,NNW,346,11.5,11.5,86,0.00,CLR,,0.00,463.0,WeatherDisplay:10.37,2013-08-14 08:42:00,
2013-08-14 09:47:00,62.7,58.5,30.07,North,354,6.9,6.9,86,0.00,CLR,,0.00,315.0,WeatherDisplay:10.37,2013-08-14 08:47:00,
2013-08-14 09:53:00,63.7,59.1,30.06,North,0,4.6,4.6,85,0.00,CLR,,0.00,581.0,WeatherDisplay:10.37,2013-08-14 08:53:00,
2013-08-14 09:58:00,64.3,58.7,30.06,North,0,7.0,7.0,82,0.00,SCT,,0.00,324.0,WeatherDisplay:10.37,2013-08-14 08:58:00,
2013-08-14 10:03:00,64.2,58.6,30.06,North,350,4.6,4.6,82,0.00,BKN,,0.00,236.0,WeatherDisplay:10.37,2013-08-14 09:03:00,
2013-08-14 10:08:00,63.4,57.8,30.07,NW,315,6.9,6.9,82,0.00,SCT,,0.00,264.0,WeatherDisplay:10.37,2013-08-14 09:08:00,
2013-08-14 10:13:00,63.5,58.2,30.06,North,349,3.5,3.5,83,0.00,OVC,,0.00,148.0,WeatherDisplay:10.37,2013-08-14 09:13:00,
2013-08-14 10:18:00,63.4,58.1,30.07,North,353,3.5,3.5,83,0.00,OVC,,0.00,121.0,WeatherDisplay:10.37,2013-08-14 09:18:00,
2013-08-14 10:23:00,62.9,57.7,30.07,North,0,4.6,4.6,83,0.00,OVC,,0.00,93.0,WeatherDisplay:10.37,2013-08-14 09:23:00,
2013-08-14 10:28:00,62.7,57.5,30.07,North,0,2.3,2.3,83,0.00,OVC,,0.00,227.0,WeatherDisplay:10.37,2013-08-14 09:28:00,
2013-08-14 10:33:00,63.2,57.9,30.07,North,0,7.0,7.0,83,0.00,BKN,,0.00,211.0,WeatherDisplay:10.37,2013-08-14 09:33:00,
2013-08-14 10:39:00,63.2,57.9,30.07,North,353,7.0,7.0,83,0.00,OVC,,0.00,188.0,WeatherDisplay:10.37,2013-08-14 09:39:00,
2013-08-14 10:44:00,63.1,57.9,30.07,North,354,6.9,6.9,83,0.00,OVC,,0.00,111.0,WeatherDisplay:10.37,2013-08-14 09:44:00,
2013-08-14 10:49:00,62.7,57.5,30.08,North,352,4.6,4.6,83,0.00,OVC,,0.00,111.0,WeatherDisplay:10.37,2013-08-14 09:49:00,
2013-08-14 10:54:00,62.7,57.5,30.08,SW,234,3.5,3.5,83,0.00,OVC,,0.00,116.0,WeatherDisplay:10.37,2013-08-14 09:54:00,
2013-08-14 10:59:00,62.6,57.7,30.07,NNW,336,6.9,6.9,84,0.00,OVC,,0.00,227.0,WeatherDisplay:10.37,2013-08-14 09:59:00,
2013-08-14 11:04:00,63.1,58.2,30.07,SW,226,5.8,5.8,84,0.00,SCT,,0.00,435.0,WeatherDisplay:10.37,2013-08-14 10:04:00,
2013-08-14 11:09:00,63.9,58.3,30.06,North,357,5.8,5.8,82,0.00,FEW,,0.00,809.0,WeatherDisplay:10.37,2013-08-14 10:09:00,
2013-08-14 11:15:00,65.5,59.2,30.06,North,0,9.2,9.2,80,0.00,CLR,,0.00,762.0,WeatherDisplay:10.37,2013-08-14 10:15:00,
2013-08-14 11:20:00,66.0,58.6,30.05,WSW,241,6.9,6.9,77,0.00,FEW,,0.00,535.0,WeatherDisplay:10.37,2013-08-14 10:20:00,
2013-08-14 11:25:00,66.3,58.5,30.05,North,0,8.1,8.1,76,0.00,FEW,,0.00,473.0,WeatherDisplay:10.37,2013-08-14 10:25:00,
2013-08-14 11:30:00,66.8,59.4,30.04,West,277,5.8,5.8,77,0.00,FEW,,0.00,526.0,WeatherDisplay:10.37,2013-08-14 10:30:00,
2013-08-14 11:35:00,66.6,58.4,30.04,North,0,5.8,5.8,75,0.00,SCT,,0.00,426.0,WeatherDisplay:10.37,2013-08-14 10:35:00,
2013-08-14 11:40:00,67.1,59.3,30.04,North,349,10.4,10.4,76,0.00,CLR,,0.00,656.0,WeatherDisplay:10.37,2013-08-14 10:40:00,
2013-08-14 11:45:00,67.4,58.8,30.04,WNW,287,9.2,9.2,74,0.00,FEW,,0.00,609.0,WeatherDisplay:10.37,2013-08-14 10:45:00,
2013-08-14 11:50:00,67.1,58.5,30.04,NNW,336,8.1,8.1,74,0.00,CLR,,0.00,660.0,WeatherDisplay:10.37,2013-08-14 10:50:00,
2013-08-14 11:55:00,66.4,57.9,30.05,North,359,8.0,8.0,74,0.00,BKN,,0.00,317.0,WeatherDisplay:10.37,2013-08-14 10:55:00,
2013-08-14 12:00:00,66.8,58.2,30.05,NNW,343,8.1,8.1,74,0.00,SCT,,0.00,528.0,WeatherDisplay:10.37,2013-08-14 11:00:00,
2013-08-14 12:05:00,67.4,58.8,30.05,North,353,3.5,3.9,74,0.00,FEW,,0.00,524.0,WeatherDisplay:10.37,2013-08-14 11:05:00,
2013-08-14 12:11:00,67.3,58.7,30.05,SW,230,6.9,6.9,74,0.00,BKN,,0.00,282.0,WeatherDisplay:10.37,2013-08-14 11:11:00,
2013-08-14 12:16:00,67.4,58.8,30.05,North,357,8.0,8.0,74,0.00,BKN,,0.00,320.0,WeatherDisplay:10.37,2013-08-14 11:16:00,
2013-08-14 12:21:00,67.1,57.8,30.05,North,357,12.7,12.7,72,0.00,BKN,,0.00,322.0,WeatherDisplay:10.37,2013-08-14 11:21:00,
2013-08-14 12:26:00,67.1,58.2,30.05,North,0,6.9,6.9,73,0.00,FEW,,0.00,616.0,WeatherDisplay:10.37,2013-08-14 11:26:00,
2013-08-14 12:32:00,67.8,58.1,30.04,North,353,6.9,6.9,71,0.00,BKN,,0.00,359.0,WeatherDisplay:10.37,2013-08-14 11:32:00,
2013-08-14 12:37:00,67.8,57.7,30.04,North,0,11.5,11.5,70,0.00,FEW,,0.00,706.0,WeatherDisplay:10.37,2013-08-14 11:37:00,
2013-08-14 12:42:00,67.8,58.1,30.04,NW,322,11.0,11.0,71,0.00,CLR,,0.00,818.0,WeatherDisplay:10.37,2013-08-14 11:42:00,
2013-08-14 12:47:00,67.9,57.8,30.04,NNW,329,11.5,11.5,70,0.00,SCT,,0.00,257.0,WeatherDisplay:10.37,2013-08-14 11:47:00,
2013-08-14 12:52:00,67.3,58.0,30.04,North,359,6.9,6.9,72,0.00,BKN,,0.00,329.0,WeatherDisplay:10.37,2013-08-14 11:52:00,
2013-08-14 12:57:00,66.9,57.2,30.04,North,354,10.4,10.4,71,0.00,BKN,,0.00,348.0,WeatherDisplay:10.37,2013-08-14 11:57:00,
2013-08-14 13:02:00,67.3,58.3,30.04,North,353,8.1,8.1,73,0.00,BKN,,0.00,340.0,WeatherDisplay:10.37,2013-08-14 12:02:00,
2013-08-14 13:07:00,67.3,58.3,30.04,SW,230,6.9,6.9,73,0.00,OVC,,0.00,208.0,WeatherDisplay:10.37,2013-08-14 12:07:00,
2013-08-14 13:12:00,66.6,57.7,30.04,North,356,11.5,11.5,73,0.00,BKN,,0.00,366.0,WeatherDisplay:10.37,2013-08-14 12:12:00,
2013-08-14 13:17:00,66.3,57.8,30.04,NW,320,13.8,13.8,74,0.00,OVC,,0.00,297.0,WeatherDisplay:10.37,2013-08-14 12:17:00,
2013-08-14 13:23:00,66.1,57.9,30.04,North,353,11.5,11.5,75,0.00,OVC,,0.00,282.0,WeatherDisplay:10.37,2013-08-14 12:23:00,
2013-08-14 13:28:00,66.0,58.2,30.03,North,353,5.8,5.8,76,0.00,BKN,,0.00,392.0,WeatherDisplay:10.37,2013-08-14 12:28:00,
2013-08-14 13:33:00,66.3,58.1,30.03,North,357,10.4,10.4,75,0.00,BKN,,0.00,401.0,WeatherDisplay:10.37,2013-08-14 12:33:00,
2013-08-14 13:38:00,66.4,58.2,30.03,North,353,6.9,6.9,75,0.00,BKN,,0.00,424.0,WeatherDisplay:10.37,2013-08-14 12:38:00,
2013-08-14 13:43:00,66.9,59.5,30.03,SW,226,4.6,4.6,77,0.00,BKN,,0.00,366.0,WeatherDisplay:10.37,2013-08-14 12:43:00,
2013-08-14 13:48:00,67.1,59.3,30.03,North,352,6.9,6.9,76,0.00,OVC,,0.00,260.0,WeatherDisplay:10.37,2013-08-14 12:48:00,
2013-08-14 13:53:00,66.6,58.4,30.04,North,353,10.4,10.4,75,0.00,OVC,,0.00,165.0,WeatherDisplay:10.37,2013-08-14 12:53:00,
2013-08-14 13:58:00,65.8,57.7,30.04,North,357,10.4,10.4,75,0.00,OVC,,0.00,120.0,WeatherDisplay:10.37,2013-08-14 12:58:00,
2013-08-14 14:03:00,65.2,57.8,30.04,North,356,8.1,8.1,77,0.00,OVC,,0.00,148.0,WeatherDisplay:10.37,2013-08-14 13:03:00,
2013-08-14 14:08:00,65.0,58.7,30.04,NNW,337,5.8,5.8,80,0.00,OVC,,0.00,155.0,WeatherDisplay:10.37,2013-08-14 13:08:00,
2013-08-14 14:14:00,64.7,59.1,30.04,North,356,3.5,3.5,82,0.00,OVC,,0.00,91.0,WeatherDisplay:10.37,2013-08-14 13:14:00,
2013-08-14 14:19:00,64.3,59.0,30.04,NW,320,3.5,3.5,83,0.00,OVC,,0.00,109.0,WeatherDisplay:10.37,2013-08-14 13:19:00,
2013-08-14 14:24:00,63.7,58.8,30.03,North,359,3.5,3.5,84,0.00,OVC,,0.00,114.0,WeatherDisplay:10.37,2013-08-14 13:24:00,
2013-08-14 14:29:00,63.5,59.2,30.03,SW,230,2.3,2.3,86,0.00,OVC,,0.00,109.0,WeatherDisplay:10.37,2013-08-14 13:29:00,
2013-08-14 14:34:00,63.4,59.1,30.03,NNW,329,3.5,3.5,86,0.00,OVC,,0.00,113.0,WeatherDisplay:10.37,2013-08-14 13:34:00,
2013-08-14 14:39:00,62.9,59.3,30.03,NW,313,5.8,5.8,88,0.00,OVC,,0.00,118.0,WeatherDisplay:10.37,2013-08-14 13:39:00,
2013-08-14 14:45:00,62.7,59.4,30.03,WSW,237,4.6,4.6,89,0.00,OVC,,0.00,134.0,WeatherDisplay:10.37,2013-08-14 13:45:00,
2013-08-14 14:50:00,62.9,59.6,30.02,NW,320,3.5,3.5,89,0.00,OVC,,0.00,134.0,WeatherDisplay:10.37,2013-08-14 13:50:00,
2013-08-14 14:55:00,62.7,59.4,30.02,WSW,237,1.2,0.0,89,0.00,OVC,,0.00,107.0,WeatherDisplay:10.37,2013-08-14 13:55:00,
2013-08-14 15:00:00,62.9,59.6,30.02,NW,308,0.0,6.0,89,0.00,OVC,,0.00,107.0,WeatherDisplay:10.37,2013-08-14 14:00:00,
2013-08-14 15:05:00,62.9,59.6,30.02,WSW,240,2.3,2.3,89,0.00,OVC,,0.00,74.0,WeatherDisplay:10.37,2013-08-14 14:05:00,
2013-08-14 15:10:00,62.9,59.6,30.02,NNW,347,3.5,3.5,89,0.00,OVC,,0.00,81.0,WeatherDisplay:10.37,2013-08-14 14:10:00,
2013-08-14 15:15:00,62.9,59.9,30.02,North,0,2.0,2.0,90,0.00,OVC,,0.00,97.0,WeatherDisplay:10.37,2013-08-14 14:15:00,
2013-08-14 15:20:00,63.1,60.1,30.02,North,0,3.5,3.5,90,0.00,OVC,,0.00,84.0,WeatherDisplay:10.37,2013-08-14 14:20:00,
2013-08-14 15:25:00,63.1,60.1,30.02,North,350,3.5,3.5,90,0.00,OVC,,0.00,74.0,WeatherDisplay:10.37,2013-08-14 14:25:00,
2013-08-14 15:30:00,62.9,59.9,30.02,North,359,3.5,3.5,90,0.00,OVC,,0.00,83.0,WeatherDisplay:10.37,2013-08-14 14:30:00,
2013-08-14 15:36:00,62.9,60.2,30.02,SW,232,2.3,2.3,91,0.00,OVC,,0.00,114.0,WeatherDisplay:10.37,2013-08-14 14:36:00,
2013-08-14 15:41:00,62.9,60.2,30.01,North,349,3.0,3.0,91,0.00,OVC,,0.00,111.0,WeatherDisplay:10.37,2013-08-14 14:41:00,
2013-08-14 15:46:00,63.1,60.7,30.01,NNW,347,2.3,2.3,92,0.00,OVC,,0.00,125.0,WeatherDisplay:10.37,2013-08-14 14:46:00,
2013-08-14 15:51:00,63.1,60.7,30.01,North,0,2.3,2.3,92,0.00,OVC,,0.00,104.0,WeatherDisplay:10.37,2013-08-14 14:51:00,
2013-08-14 15:56:00,63.1,60.7,30.01,North,349,2.3,0.0,92,0.00,OVC,,0.00,123.0,WeatherDisplay:10.37,2013-08-14 14:56:00,
2013-08-14 16:01:00,63.1,60.7,30.01,North,0,2.3,2.3,92,0.01,RA,,0.01,95.0,WeatherDisplay:10.37,2013-08-14 15:01:00,
2013-08-14 16:06:00,63.1,61.0,30.01,NNW,346,3.5,3.5,93,0.01,RA,,0.01,121.0,WeatherDisplay:10.37,2013-08-14 15:06:00,
2013-08-14 16:11:00,63.1,61.0,30.01,North,359,3.5,3.5,93,0.01,OVC,,0.01,128.0,WeatherDisplay:10.37,2013-08-14 15:11:00,
2013-08-14 16:16:00,63.1,61.3,30.01,NNW,346,3.5,3.5,94,0.01,OVC,,0.01,213.0,WeatherDisplay:10.37,2013-08-14 15:16:00,
2013-08-14 16:22:00,62.9,61.4,30.00,North,0,3.5,3.5,95,0.01,BKN,,0.01,223.0,WeatherDisplay:10.37,2013-08-14 15:22:00,
2013-08-14 16:27:00,62.7,61.2,30.00,North,349,3.5,3.5,95,0.01,OVC,,0.01,222.0,WeatherDisplay:10.37,2013-08-14 15:27:00,
2013-08-14 16:32:00,62.6,61.4,30.00,North,0,10.4,10.4,96,0.01,BKN,,0.01,264.0,WeatherDisplay:10.37,2013-08-14 15:32:00,
2013-08-14 16:37:00,62.7,61.5,30.00,NNW,346,3.5,3.5,96,0.01,OVC,,0.01,194.0,WeatherDisplay:10.37,2013-08-14 15:37:00,
2013-08-14 16:42:00,63.1,62.2,30.00,WNW,301,2.3,2.3,97,0.01,OVC,,0.01,100.0,WeatherDisplay:10.37,2013-08-14 15:42:00,
2013-08-14 16:47:00,62.7,61.8,30.00,North,356,3.5,3.5,97,0.01,OVC,,0.01,125.0,WeatherDisplay:10.37,2013-08-14 15:47:00,
2013-08-14 16:54:00,62.7,61.8,30.00,North,0,6.9,6.9,97,0.01,OVC,,0.01,162.0,WeatherDisplay:10.37,2013-08-14 15:54:00,
2013-08-14 16:59:00,62.4,61.5,30.00,North,0,5.8,5.8,97,0.00,OVC,,0.01,132.0,WeatherDisplay:10.37,2013-08-14 15:59:00,
2013-08-14 17:04:00,62.3,61.4,30.00,North,0,2.3,2.3,97,0.00,OVC,,0.01,93.0,WeatherDisplay:10.37,2013-08-14 16:04:00,
2013-08-14 17:09:00,62.1,61.2,30.00,NNW,342,5.8,5.8,97,0.00,OVC,,0.01,67.0,WeatherDisplay:10.37,2013-08-14 16:09:00,
2013-08-14 17:14:00,62.1,61.5,30.00,North,352,4.6,4.6,98,0.00,OVC,,0.01,107.0,WeatherDisplay:10.37,2013-08-14 16:14:00,
2013-08-14 17:20:00,62.3,61.7,30.00,North,0,2.3,2.3,98,0.01,RA,,0.02,116.0,WeatherDisplay:10.37,2013-08-14 16:20:00,
2013-08-14 17:26:00,62.3,61.7,29.99,North,356,3.5,3.5,98,0.01,RA,,0.02,86.0,WeatherDisplay:10.37,2013-08-14 16:26:00,
2013-08-14 17:32:00,62.3,61.7,29.99,North,0,2.3,2.3,98,0.01,OVC,,0.02,99.0,WeatherDisplay:10.37,2013-08-14 16:32:00,
2013-08-14 17:37:00,62.4,61.8,29.99,North,359,3.5,3.5,98,0.01,OVC,,0.02,102.0,WeatherDisplay:10.37,2013-08-14 16:37:00,
2013-08-14 17:42:00,62.6,62.0,29.99,NNW,340,6.9,6.9,98,0.01,OVC,,0.02,121.0,WeatherDisplay:10.37,2013-08-14 16:42:00,
2013-08-14 17:47:00,62.3,61.7,29.99,WSW,258,6.0,6.0,98,0.01,OVC,,0.02,95.0,WeatherDisplay:10.37,2013-08-14 16:47:00,
2013-08-14 17:53:00,62.1,61.5,29.99,NNW,344,6.9,6.9,98,0.01,OVC,,0.02,120.0,WeatherDisplay:10.37,2013-08-14 16:53:00,
2013-08-14 17:58:00,62.3,62.0,29.99,North,357,5.8,5.8,99,0.01,OVC,,0.02,100.0,WeatherDisplay:10.37,2013-08-14 16:58:00,
2013-08-14 18:03:00,62.3,62.0,29.99,NNW,343,4.6,4.6,99,0.02,RA,,0.03,53.0,WeatherDisplay:10.37,2013-08-14 17:03:00,
2013-08-14 18:08:00,62.1,61.8,29.99,WSW,240,3.5,3.5,99,0.02,RA,,0.03,48.0,WeatherDisplay:10.37,2013-08-14 17:08:00,
2013-08-14 18:14:00,62.0,61.4,29.98,NNW,347,3.5,3.5,98,0.02,OVC,,0.03,39.0,WeatherDisplay:10.37,2013-08-14 17:14:00,
2013-08-14 18:19:00,61.8,61.5,29.98,NNW,337,5.8,5.8,99,0.02,OVC,,0.03,39.0,WeatherDisplay:10.37,2013-08-14 17:19:00,
2013-08-14 18:24:00,61.6,61.0,29.98,NW,305,4.6,4.6,98,0.01,OVC,,0.03,48.0,WeatherDisplay:10.37,2013-08-14 17:24:00,
2013-08-14 18:29:00,61.5,61.2,29.98,NNW,342,6.9,6.9,99,0.01,OVC,,0.03,46.0,WeatherDisplay:10.37,2013-08-14 17:29:00,
2013-08-14 18:34:00,61.5,61.2,29.97,North,357,3.5,3.5,99,0.01,OVC,,0.03,46.0,WeatherDisplay:10.37,2013-08-14 17:34:00,
2013-08-14 18:39:00,61.5,61.2,29.97,North,349,3.5,3.5,99,0.01,OVC,,0.03,35.0,WeatherDisplay:10.37,2013-08-14 17:39:00,
2013-08-14 18:44:00,61.3,61.0,29.97,North,0,4.6,4.6,99,0.01,OVC,,0.03,26.0,WeatherDisplay:10.37,2013-08-14 17:44:00,
2013-08-14 18:49:00,61.3,61.0,29.97,NNW,337,2.3,2.3,99,0.01,OVC,,0.03,23.0,WeatherDisplay:10.37,2013-08-14 17:49:00,
2013-08-14 18:54:00,61.3,61.0,29.97,NNW,340,2.3,2.3,99,0.01,OVC,,0.03,18.0,WeatherDisplay:10.37,2013-08-14 17:54:00,
2013-08-14 18:59:00,61.3,61.0,29.97,North,352,2.3,0.0,99,0.01,OVC,,0.03,26.0,WeatherDisplay:10.37,2013-08-14 17:59:00,
2013-08-14 19:05:00,61.3,61.0,29.96,North,0,1.2,1.2,99,0.00,OVC,,0.03,26.0,WeatherDisplay:10.37,2013-08-14 18:05:00,
2013-08-14 19:10:00,61.3,61.0,29.96,North,356,2.3,2.3,99,0.00,OVC,,0.03,19.0,WeatherDisplay:10.37,2013-08-14 18:10:00,
2013-08-14 19:15:00,61.3,61.0,29.96,NNW,346,1.0,3.0,99,0.00,OVC,,0.03,21.0,WeatherDisplay:10.37,2013-08-14 18:15:00,
2013-08-14 19:20:00,61.5,61.2,29.96,North,357,3.5,3.5,99,0.00,OVC,,0.03,33.0,WeatherDisplay:10.37,2013-08-14 18:20:00,
2013-08-14 19:26:00,61.5,61.2,29.96,NW,313,2.3,2.5,99,0.00,OVC,,0.03,23.0,WeatherDisplay:10.37,2013-08-14 18:26:00,
2013-08-14 19:32:00,61.3,61.0,29.96,North,359,6.9,6.9,99,0.00,OVC,,0.03,14.0,WeatherDisplay:10.37,2013-08-14 18:32:00,
2013-08-14 19:37:00,61.3,60.7,29.96,North,350,5.8,5.8,98,0.00,OVC,,0.03,18.0,WeatherDisplay:10.37,2013-08-14 18:37:00,
2013-08-14 19:42:00,61.2,60.6,29.96,NNW,339,4.6,4.6,98,0.00,OVC,,0.03,16.0,WeatherDisplay:10.37,2013-08-14 18:42:00,
2013-08-14 19:49:00,61.2,60.6,29.96,NNW,343,5.8,5.8,98,0.00,OVC,,0.03,12.0,WeatherDisplay:10.37,2013-08-14 18:49:00,
2013-08-14 19:54:00,61.0,60.4,29.96,North,359,4.6,4.6,98,0.00,OVC,,0.03,12.0,WeatherDisplay:10.37,2013-08-14 18:54:00,
2013-08-14 19:59:00,61.0,60.4,29.95,NNW,336,5.0,5.0,98,0.00,OVC,,0.03,14.0,WeatherDisplay:10.37,2013-08-14 18:59:00,
2013-08-14 20:05:00,61.0,60.7,29.95,North,350,6.9,6.9,99,0.00,OVC,,0.03,12.0,WeatherDisplay:10.37,2013-08-14 19:05:00,
2013-08-14 20:13:00,60.9,60.3,29.95,NNW,347,2.3,2.3,98,0.00,OVC,,0.03,7.0,WeatherDisplay:10.37,2013-08-14 19:13:00,
2013-08-14 20:18:00,60.9,60.3,29.95,North,0,5.8,5.8,98,0.00,OVC,,0.03,5.0,WeatherDisplay:10.37,2013-08-14 19:18:00,
2013-08-14 20:24:00,60.9,60.3,29.95,NNW,335,4.6,4.6,98,0.00,OVC,,0.03,5.0,WeatherDisplay:10.37,2013-08-14 19:24:00,
2013-08-14 20:29:00,60.7,60.1,29.95,NNW,335,6.9,6.9,98,0.00,OVC,,0.03,5.0,WeatherDisplay:10.37,2013-08-14 19:29:00,
2013-08-14 20:35:00,60.7,60.1,29.95,North,359,4.0,4.0,98,0.00,OVC,,0.03,5.0,WeatherDisplay:10.37,2013-08-14 19:35:00,
2013-08-14 20:40:00,60.7,60.4,29.95,NNW,344,2.3,2.3,99,0.00,OVC,,0.03,0.0,WeatherDisplay:10.37,2013-08-14 19:40:00,
2013-08-14 20:46:00,60.5,60.2,29.95,North,359,4.6,4.6,99,0.00,OVC,,0.03,0.0,WeatherDisplay:10.37,2013-08-14 19:46:00,
2013-08-14 20:51:00,60.5,60.2,29.95,NNW,347,2.3,2.3,99,0.00,OVC,,0.03,0.0,WeatherDisplay:10.37,2013-08-14 19:51:00,
2013-08-14 20:56:00,60.5,60.2,29.94,NNW,344,5.0,5.0,99,0.00,OVC,,0.03,0.0,WeatherDisplay:10.37,2013-08-14 19:56:00,
2013-08-14 21:01:00,60.5,60.2,29.94,NNW,333,3.5,3.5,99,0.00,CLR,,0.03,0.0,WeatherDisplay:10.37,2013-08-14 20:01:00,
2013-08-14 21:07:00,60.5,60.2,29.94,WSW,243,3.5,3.5,99,0.01,RA,,0.04,0.0,WeatherDisplay:10.37,2013-08-14 20:07:00,
2013-08-14 21:12:00,60.4,60.1,29.94,NNW,335,5.8,5.8,99,0.01,RA,,0.04,0.0,WeatherDisplay:10.37,2013-08-14 20:12:00,
2013-08-14 21:17:00,60.4,60.1,29.94,NNW,333,3.5,3.5,99,0.01,,,0.04,0.0,WeatherDisplay:10.37,2013-08-14 20:17:00,
2013-08-14 21:22:00,60.4,60.1,29.94,North,357,8.1,8.1,99,0.01,CLR,,0.04,0.0,WeatherDisplay:10.37,2013-08-14 20:22:00,
2013-08-14 21:28:00,60.4,60.1,29.94,NNW,344,6.0,6.0,99,0.01,CLR,,0.04,0.0,WeatherDisplay:10.37,2013-08-14 20:28:00,
2013-08-14 21:33:00,60.4,60.1,29.94,NNW,335,5.8,5.8,99,0.01,CLR,,0.04,0.0,WeatherDisplay:10.37,2013-08-14 20:33:00,
2013-08-14 21:39:00,60.4,60.1,29.93,North,357,4.6,4.6,99,0.02,RA,,0.05,0.0,WeatherDisplay:10.37,2013-08-14 20:39:00,
2013-08-14 21:44:00,60.4,60.1,29.93,North,353,12.7,12.7,99,0.03,RA,,0.06,0.0,WeatherDisplay:10.37,2013-08-14 20:44:00,
2013-08-14 21:49:00,60.4,60.1,29.93,North,354,11.5,11.5,99,0.03,RA,,0.06,0.0,WeatherDisplay:10.37,2013-08-14 20:49:00,
2013-08-14 21:55:00,60.4,60.1,29.93,NNW,329,8.1,8.1,99,0.03,CLR,,0.06,0.0,WeatherDisplay:10.37,2013-08-14 20:55:00,
2013-08-14 22:00:00,60.4,60.1,29.93,WSW,244,11.5,11.5,99,0.04,RA,,0.07,0.0,WeatherDisplay:10.37,2013-08-14 21:00:00,
2013-08-14 22:06:00,60.4,60.1,29.93,North,352,10.4,10.4,99,0.04,RA,,0.07,0.0,WeatherDisplay:10.37,2013-08-14 21:06:00,
2013-08-14 22:11:00,60.4,60.1,29.93,NW,309,8.1,8.1,99,0.03,,,0.07,0.0,WeatherDisplay:10.37,2013-08-14 21:11:00,
2013-08-14 22:16:00,60.5,60.5,29.93,NW,322,8.1,8.1,100,0.03,CLR,,0.07,0.0,WeatherDisplay:10.37,2013-08-14 21:16:00,
2013-08-14 22:21:00,60.5,60.5,29.92,NNW,344,8.1,8.1,100,0.03,CLR,,0.07,0.0,WeatherDisplay:10.37,2013-08-14 21:21:00,
2013-08-14 22:26:00,60.5,60.5,29.92,NNW,333,6.0,6.0,100,0.03,CLR,,0.08,0.0,WeatherDisplay:10.37,2013-08-14 21:26:00,
2013-08-14 22:31:00,60.5,60.5,29.92,NNW,343,6.9,6.9,100,0.04,RA,,0.08,0.0,WeatherDisplay:10.37,2013-08-14 21:31:00,
2013-08-14 22:36:00,60.7,60.7,29.92,North,352,6.9,6.9,100,0.04,RA,,0.08,0.0,WeatherDisplay:10.37,2013-08-14 21:36:00,
2013-08-14 22:42:00,60.7,60.7,29.92,North,350,6.9,6.9,100,0.03,CLR,,0.08,0.0,WeatherDisplay:10.37,2013-08-14 21:42:00,
2013-08-14 22:47:00,60.9,60.9,29.92,North,349,8.1,8.1,100,0.02,CLR,,0.08,0.0,WeatherDisplay:10.37,2013-08-14 21:47:00,
2013-08-14 22:52:00,60.9,60.9,29.92,NW,326,8.1,8.1,100,0.03,RA,,0.09,0.0,WeatherDisplay:10.37,2013-08-14 21:52:00,
2013-08-14 22:57:00,61.0,61.0,29.92,NNW,346,9.2,9.2,100,0.03,RA,,0.09,0.0,WeatherDisplay:10.37,2013-08-14 21:57:00,
2013-08-14 23:02:00,61.0,61.0,29.92,NW,326,5.8,5.8,100,0.02,,,0.09,0.0,WeatherDisplay:10.37,2013-08-14 22:02:00,
2013-08-14 23:07:00,61.0,61.0,29.92,NW,305,6.9,6.9,100,0.02,CLR,,0.09,0.0,WeatherDisplay:10.37,2013-08-14 22:07:00,
2013-08-14 23:12:00,61.0,61.0,29.92,NW,316,5.8,5.8,100,0.02,CLR,,0.09,0.0,WeatherDisplay:10.37,2013-08-14 22:12:00,
2013-08-14 23:17:00,61.0,61.0,29.92,NNW,332,3.5,3.5,100,0.02,CLR,,0.09,0.0,WeatherDisplay:10.37,2013-08-14 22:17:00,
2013-08-14 23:23:00,61.0,61.0,29.92,WNW,301,5.8,5.8,100,0.02,CLR,,0.09,0.0,WeatherDisplay:10.37,2013-08-14 22:23:00,
2013-08-14 23:28:00,61.2,61.2,29.92,NW,320,6.9,6.9,100,0.01,CLR,,0.09,0.0,WeatherDisplay:10.37,2013-08-14 22:28:00,
2013-08-14 23:34:00,61.2,61.2,29.92,NNW,328,3.5,3.5,100,0.01,CLR,,0.09,0.0,WeatherDisplay:10.37,2013-08-14 22:34:00,
2013-08-14 23:39:00,61.0,61.0,29.92,North,349,8.1,8.1,100,0.01,CLR,,0.09,0.0,WeatherDisplay:10.37,2013-08-14 22:39:00,
2013-08-14 23:44:00,61.0,61.0,29.92,NNW,328,2.3,2.3,100,0.01,CLR,,0.09,0.0,WeatherDisplay:10.37,2013-08-14 22:44:00,
2013-08-14 23:49:00,61.0,61.0,29.91,NW,322,2.3,2.3,100,0.01,CLR,,0.09,0.0,WeatherDisplay:10.37,2013-08-14 22:49:00,
2013-08-14 23:54:00,61.0,61.0,29.91,NW,320,3.5,3.5,100,0.00,CLR,,0.09,0.0,WeatherDisplay:10.37,2013-08-14 22:54:00,